Wind_Speed
3 3 4 4 4 4 4 5 6 6 6 6 5 5 5 5 5 5 5 5 5 5 5 5 6 7 6 6 6 6 7 7 7 7 8 8 8 8 8 8 8 9 9
4 4 4 5 5 5 5 6 6 7 7 6 6 6 5 5 5 5 5 5 6 6 6 6 7 6 7 8 7 7 7 7 7 8 8 9 9 9 10 9 9 10 10
5 5 5 6 6 6 6 6 6 6 7 7 6 6 6 6 6 7 7 7 7 8 8 8 8 8 8 9 9 9 9 9 9 9 9 10 9 10 11 11 11 11 11
6 6 6 6 6 6 6 7 7 7 7 7 6 7 7 7 7 8 8 8 8 9 9 9 10 9 10 10 10 10 11 11 11 11 11 11 11 11 12 12 12 12 12
7 7 7 6 6 7 7 7 8 8 8 7 6 7 7 7 7 8 8 8 9 10 11 11 11 10 10 10 11 12 12 13 13 13 13 13 13 13 13 13 13 13 13
8 7 7 7 7 8 8 8 8 8 8 8 7 7 7 7 8 8 9 10 10 10 11 12 12 12 12 12 12 12 13 14 14 14 14 14 14 14 14 13 14 14 14
8 7 7 7 8 8 8 8 9 9 8 8 7 7 8 8 9 10 10 10 11 11 12 12 13 13 13 13 13 14 14 14 14 14 14 15 15 15 15 15 14 14 14
8 8 8 8 8 8 8 9 10 9 9 9 9 8 9 10 10 11 11 12 12 12 12 12 13 13 14 14 14 14 15 15 15 15 15 16 16 16 16 16 16 17 16
7 7 7 8 8 7 8 10 10 10 10 9 10 10 10 11 11 11 11 12 12 12 13 13 13 14 15 15 15 15 15 15 16 16 17 17 18 18 17 17 17 17 18
6 6 7 7 6 8 9 10 11 11 11 11 11 11 12 12 12 12 12 13 13 13 13 14 14 15 16 16 16 16 16 16 17 18 18 18 18 18 18 18 17 18 18
6 7 8 8 8 10 11 12 12 12 12 12 12 12 12 13 13 13 13 14 14 15 15 15 16 17 17 17 17 17 17 17 17 18 18 18 18 19 19 18 17 17 17
7 8 8 9 10 11 12 12 13 13 13 14 13 13 13 14 14 14 14 15 16 17 17 17 18 18 18 18 17 17 17 17 18 18 18 19 19 19 19 19 18 18 18
8 9 10 10 11 12 12 13 13 14 14 14 14 14 15 15 15 15 16 16 17 18 18 19 19 19 19 18 17 17 17 18 18 19 19 19 19 20 20 19 19 19 19
10 10 11 12 13 13 14 14 14 15 15 16 15 16 16 16 17 16 17 17 18 19 19 20 20 20 19 18 17 17 18 19 19 20 20 20 20 20 21 20 19 19 19
11 11 12 13 13 14 14 15 16 17 17 17 17 17 17 17 17 18 18 19 19 19 20 21 20 20 18 18 18 17 18 19 20 20 20 21 20 21 21 20 20 20 20
12 13 14 14 15 16 16 17 18 18 18 18 18 19 19 19 20 20 20 21 22 22 22 22 20 19 19 18 17 18 19 20 21 21 21 21 20 20 21 20 21 21 21
14 14 15 15 16 17 18 19 19 20 20 20 20 20 21 21 21 22 22 22 22 22 22 22 21 20 20 19 19 19 20 20 21 21 21 20 20 20 20 20 20 20 20
15 16 16 16 17 18 19 20 20 20 20 21 21 21 21 22 22 22 23 22 22 22 21 21 21 21 21 21 20 20 20 20 20 20 20 20 20 20 20 21 20 20 20
17 18 18 19 19 20 21 21 21 22 22 22 22 22 22 22 22 23 23 23 23 23 23 22 22 22 22 22 22 22 21 21 21 20 20 20 20 20 20 21 21 21 21
19 20 21 21 21 22 22 23 23 23 23 23 23 23 24 24 23 24 24 25 25 25 24 24 24 24 24 23 23 22 22 22 21 21 20 19 19 20 20 20 21 21 21
22 22 23 23 23 24 24 24 24 24 24 24 25 25 25 25 25 25 26 26 26 26 25 25 24 24 24 24 23 22 22 21 21 21 20 19 19 19 19 20 20 21 21
23 24 25 25 25 25 25 26 26 26 26 26 26 26 26 26 26 27 27 27 26 26 26 25 25 25 25 24 23 22 22 22 21 21 21 20 20 19 20 21 20 21 21
25 25 26 26 27 27 27 27 27 27 27 27 27 27 27 28 28 29 29 29 28 28 27 26 26 25 25 24 24 23 22 22 21 22 22 21 20 20 20 20 21 21 21
26 27 27 27 27 27 28 28 28 29 29 28 28 28 28 28 29 29 30 30 29 29 27 27 27 26 25 25 25 24 23 23 22 22 22 21 21 21 21 20 20 21 21
28 28 29 29 29 29 29 29 29 29 29 29 29 29 28 28 29 29 29 29 29 29 28 28 28 27 27 25 24 24 24 23 22 22 21 21 21 20 20 20 20 20 21
28 28 29 29 30 30 30 29 29 28 29 29 29 29 29 29 29 29 28 28 27 27 27 27 27 27 26 25 25 25 24 23 22 22 22 21 20 20 19 19 20 21 21
Wind_Direction
311 318 325 309 299 300 305 314 320 330 337 334 327 318 312 315 315 313 308 310 301 294 301 299 289 285 279 287 291 293 296 296 292 291 288 287 287 281 284 285 284 275 274
315 316 323 322 317 309 309 316 324 327 327 328 322 315 316 309 310 314 315 316 306 297 295 298 300 291 285 287 287 291 294 295 293 290 290 289 285 282 286 287 285 277 273
307 315 316 317 315 315 320 322 322 326 327 322 315 311 313 314 305 303 305 307 307 302 298 295 295 291 288 286 286 287 284 286 288 288 289 287 283 284 286 283 279 277 276
305 313 318 318 320 319 325 328 328 328 329 324 318 313 314 315 311 305 305 303 304 302 300 293 291 288 288 285 286 285 285 284 287 287 284 283 280 283 286 285 281 277 275
300 306 310 313 318 323 326 325 330 332 332 328 322 316 313 313 308 306 303 300 298 296 294 292 290 285 286 286 285 283 280 280 284 286 284 280 280 282 285 285 281 280 276
307 308 309 311 315 320 322 323 327 328 330 326 320 317 316 312 311 308 306 303 297 292 291 290 288 288 286 283 282 282 281 282 283 282 284 283 282 283 282 285 284 281 280
312 311 312 311 314 317 320 327 325 321 324 322 321 321 318 316 315 311 308 308 301 295 293 292 290 288 288 286 284 284 283 282 285 284 285 286 285 284 286 286 286 283 283
307 311 307 307 307 311 319 323 323 319 315 315 317 318 316 314 312 311 308 310 308 300 297 296 293 290 286 284 285 286 285 281 281 283 283 283 283 281 282 284 283 282 283
305 310 310 303 302 307 314 320 321 318 315 314 313 311 309 308 310 310 307 307 308 305 299 298 295 293 289 283 282 284 284 281 280 281 283 282 282 281 281 282 282 282 282
311 316 318 313 308 314 316 317 317 315 316 315 312 311 309 309 309 308 307 309 310 308 304 299 298 296 292 289 286 285 285 282 281 284 286 284 282 281 280 281 283 283 283
316 319 322 320 317 317 317 317 318 315 315 314 313 311 310 308 308 307 305 306 308 308 307 304 300 297 293 289 285 287 284 283 284 286 286 285 283 279 279 282 282 282 283
316 317 318 317 316 316 315 315 316 316 315 313 312 311 309 308 305 303 303 303 304 307 307 307 303 300 297 293 289 289 285 285 286 288 287 286 284 281 280 280 279 279 280
316 315 317 317 314 315 315 314 315 316 313 311 311 309 308 307 305 304 304 303 304 306 305 305 305 303 301 295 292 291 287 287 287 287 287 287 285 282 280 279 279 279 279
310 314 317 315 313 313 313 313 312 313 311 307 306 305 304 305 305 305 307 305 306 306 303 303 304 303 301 297 294 292 290 291 288 287 287 288 286 283 281 280 279 279 279
306 309 310 312 310 311 310 308 308 308 306 304 302 301 302 302 302 302 304 304 304 304 303 303 302 303 301 298 296 294 294 293 291 289 287 288 287 284 281 279 278 278 277
304 303 305 306 306 306 306 305 305 304 303 302 300 299 300 300 300 300 302 302 302 304 304 305 303 302 301 300 296 294 294 292 291 290 287 286 286 284 281 280 278 277 275
302 303 305 307 308 307 306 304 303 302 302 301 300 299 299 300 299 299 301 302 303 304 305 304 303 302 301 300 296 295 294 292 290 289 286 285 285 284 282 280 277 276 275
298 300 302 304 304 306 307 306 304 303 303 302 300 300 300 299 299 299 300 301 302 302 301 300 301 301 301 298 297 296 295 294 290 288 287 286 286 285 283 281 279 274 274
296 297 298 299 301 303 304 304 302 303 301 303 303 302 301 300 298 298 298 298 299 298 297 297 298 298 299 297 296 296 294 294 291 290 289 289 287 288 288 286 281 276 276
296 297 298 299 299 299 300 300 300 299 300 301 303 304 302 301 299 299 299 298 297 296 296 296 296 296 297 296 296 294 294 293 292 293 290 287 285 285 287 286 283 278 277
295 295 297 296 297 298 299 299 299 299 300 300 300 301 301 300 300 299 298 297 296 294 294 293 293 294 294 294 294 294 293 293 293 293 292 290 288 288 288 289 287 282 279
295 295 297 298 298 299 298 297 297 298 298 298 298 298 299 298 298 297 297 297 297 295 293 292 291 293 294 294 293 293 292 292 292 292 292 292 291 289 288 287 286 283 279
296 296 297 298 299 299 299 297 296 296 296 296 296 296 297 297 296 295 296 295 295 294 292 291 291 292 293 293 292 291 290 290 290 291 291 291 290 289 287 285 283 283 281
297 295 296 296 298 299 299 298 297 296 296 295 296 297 296 297 296 296 294 294 294 292 291 290 291 291 290 290 290 290 289 289 288 290 291 291 290 289 288 285 282 282 282
297 297 296 295 297 299 299 297 297 296 297 296 296 297 298 298 297 296 295 294 294 293 290 290 289 288 289 290 288 288 288 289 289 290 291 290 290 289 287 284 284 283 283
297 297 298 298 299 300 300 298 296 295 296 295 295 296 297 296 295 294 294 294 293 294 292 288 287 288 289 288 287 287 287 287 288 288 287 287 289 289 289 286 284 283 284
Height
5897 5897 5897 5897 5897 5896 5896 5896 5896 5895 5894 5894 5893 5893 5893 5893 5893 5893 5893 5893 5893 5894 5894 5894 5894 5894 5894 5894 5894 5894 5894 5894 5894 5894 5894 5894 5894 5894 5894 5894 5894 5894 5894
5897 5897 5897 5896 5896 5896 5896 5895 5895 5894 5893 5893 5892 5892 5892 5892 5892 5892 5892 5893 5893 5892 5892 5892 5892 5892 5893 5893 5893 5893 5893 5892 5892 5892 5892 5892 5892 5892 5892 5892 5892 5892 5892
5897 5897 5896 5896 5896 5896 5895 5895 5894 5893 5892 5891 5891 5891 5891 5891 5891 5891 5891 5892 5891 5891 5891 5891 5891 5891 5891 5891 5891 5891 5891 5891 5890 5890 5890 5890 5890 5890 5889 5889 5889 5889 5889
5897 5897 5896 5896 5896 5895 5895 5894 5893 5892 5891 5890 5889 5889 5889 5890 5889 5890 5890 5890 5890 5890 5889 5889 5889 5889 5889 5889 5889 5889 5889 5888 5888 5888 5887 5887 5887 5887 5887 5886 5886 5886 5886
5896 5896 5896 5896 5895 5895 5894 5893 5892 5891 5890 5889 5889 5888 5888 5888 5888 5888 5888 5888 5888 5888 5887 5887 5886 5886 5886 5886 5886 5886 5886 5886 5885 5885 5885 5884 5884 5884 5884 5883 5883 5883 5883
5895 5895 5895 5895 5895 5894 5893 5892 5891 5891 5890 5889 5888 5888 5888 5887 5887 5886 5886 5885 5885 5885 5885 5884 5884 5883 5883 5883 5883 5883 5883 5882 5882 5882 5881 5881 5881 5881 5880 5880 5880 5879 5879
5895 5894 5894 5894 5894 5893 5893 5892 5891 5890 5889 5888 5888 5887 5886 5886 5885 5885 5884 5883 5883 5882 5882 5881 5881 5880 5880 5879 5879 5879 5879 5879 5879 5878 5878 5878 5877 5877 5877 5876 5876 5876 5876
5894 5893 5893 5893 5893 5892 5892 5890 5890 5889 5888 5887 5886 5886 5885 5885 5883 5883 5882 5881 5880 5879 5879 5878 5878 5877 5877 5876 5876 5875 5875 5875 5875 5875 5874 5874 5874 5873 5873 5873 5873 5872 5872
5892 5892 5892 5891 5891 5891 5890 5889 5888 5888 5887 5886 5885 5884 5884 5883 5882 5881 5880 5879 5878 5877 5876 5875 5874 5873 5873 5872 5871 5871 5871 5871 5871 5871 5870 5870 5870 5869 5869 5868 5868 5868 5867
5891 5891 5890 5890 5889 5889 5889 5888 5887 5886 5885 5884 5883 5882 5881 5880 5879 5878 5877 5876 5875 5873 5872 5872 5871 5869 5868 5867 5867 5867 5867 5867 5866 5866 5866 5866 5865 5865 5864 5864 5864 5863 5863
5890 5890 5889 5889 5888 5888 5887 5886 5885 5884 5883 5882 5881 5880 5879 5877 5876 5876 5875 5873 5872 5870 5869 5868 5866 5865 5864 5863 5862 5862 5862 5862 5862 5861 5861 5861 5860 5860 5859 5859 5858 5858 5858
5889 5888 5888 5887 5887 5886 5886 5885 5884 5882 5881 5880 5879 5877 5876 5875 5874 5873 5872 5870 5869 5867 5865 5864 5862 5861 5860 5859 5858 5857 5857 5857 5857 5856 5856 5855 5855 5854 5854 5854 5853 5853 5853
5887 5887 5886 5885 5885 5884 5883 5882 5881 5880 5879 5878 5876 5875 5874 5872 5871 5870 5868 5867 5865 5863 5861 5860 5858 5856 5855 5854 5854 5853 5852 5852 5852 5851 5851 5850 5849 5849 5849 5848 5848 5848 5847
5885 5885 5884 5883 5882 5882 5881 5880 5879 5878 5876 5875 5874 5872 5871 5869 5868 5866 5865 5863 5861 5860 5858 5856 5854 5852 5851 5849 5849 5848 5848 5847 5847 5846 5846 5845 5844 5843 5843 5843 5842 5842 5841
5884 5883 5882 5881 5880 5879 5878 5877 5876 5874 5873 5872 5870 5869 5868 5866 5864 5863 5861 5859 5858 5856 5854 5852 5850 5848 5846 5845 5844 5844 5843 5843 5842 5841 5840 5839 5838 5837 5837 5836 5836 5836 5836
5881 5880 5879 5878 5877 5876 5875 5874 5872 5871 5870 5868 5867 5865 5864 5862 5860 5859 5857 5855 5853 5851 5849 5847 5846 5844 5842 5841 5840 5839 5838 5837 5836 5835 5834 5833 5832 5831 5830 5830 5829 5829 5829
5879 5878 5877 5875 5874 5873 5871 5870 5868 5867 5866 5864 5862 5861 5859 5857 5856 5854 5852 5850 5848 5847 5845 5843 5841 5840 5838 5837 5835 5834 5833 5832 5831 5830 5828 5827 5826 5825 5824 5824 5823 5823 5823
5876 5875 5873 5872 5871 5869 5867 5866 5864 5863 5861 5859 5858 5856 5854 5852 5851 5849 5847 5845 5844 5842 5840 5838 5837 5835 5834 5832 5830 5829 5828 5826 5825 5824 5823 5822 5821 5820 5819 5818 5818 5817 5817
5872 5871 5869 5868 5866 5865 5863 5861 5859 5858 5856 5854 5853 5851 5849 5847 5845 5844 5842 5840 5839 5837 5835 5833 5832 5830 5828 5827 5825 5823 5822 5821 5820 5818 5817 5816 5815 5814 5814 5813 5812 5812 5812
5867 5866 5865 5863 5862 5860 5858 5856 5855 5853 5851 5849 5848 5846 5844 5842 5840 5838 5837 5835 5833 5831 5829 5828 5826 5824 5823 5821 5819 5818 5816 5815 5814 5812 5811 5810 5809 5808 5807 5807 5806 5806 5805
5862 5861 5860 5858 5857 5855 5853 5851 5849 5847 5845 5844 5842 5840 5838 5836 5834 5833 5831 5829 5827 5825 5823 5821 5820 5818 5817 5815 5813 5812 5811 5809 5808 5806 5805 5804 5803 5802 5802 5800 5799 5799 5799
5857 5855 5854 5852 5851 5849 5847 5845 5843 5841 5839 5838 5836 5834 5832 5830 5828 5826 5824 5822 5820 5818 5817 5815 5814 5812 5810 5808 5807 5805 5804 5803 5802 5801 5799 5798 5797 5796 5795 5794 5793 5793 5792
5851 5849 5848 5846 5844 5842 5840 5838 5836 5834 5833 5831 5829 5827 5825 5823 5822 5820 5818 5816 5814 5812 5810 5808 5807 5805 5804 5802 5800 5798 5797 5796 5796 5794 5793 5792 5791 5790 5789 5788 5787 5786 5786
5845 5843 5842 5840 5838 5836 5833 5831 5829 5827 5825 5824 5822 5820 5818 5816 5814 5812 5810 5808 5806 5804 5802 5801 5800 5798 5796 5795 5793 5792 5791 5790 5789 5787 5786 5786 5784 5784 5783 5781 5781 5780 5780
5839 5837 5835 5833 5831 5829 5826 5824 5822 5820 5818 5816 5814 5812 5810 5808 5806 5804 5802 5800 5798 5796 5795 5793 5792 5790 5789 5787 5786 5785 5784 5783 5782 5781 5780 5779 5778 5777 5776 5775 5774 5774 5774
5832 5830 5828 5826 5824 5822 5819 5817 5814 5813 5810 5808 5806 5804 5802 5800 5798 5795 5793 5791 5790 5788 5786 5785 5784 5783 5781 5780 5779 5778 5777 5776 5775 5775 5773 5772 5771 5770 5770 5769 5768 5767 5767